User: anonymous   Login
Location: Pleiades Observatory
(40.1297°N, 91.5238°W)
Time: 02:07:15
(UTC-05:00)
Language:

Cosmos 1842 Rocket - Orbit

View from above orbital plane
View from above orbital plane
View from above satellite
View from above satellite

Ground track
Ground track

The orbit data is extracted from the following two-line orbital elements,

1 17912U 87038B   15116.40083815  .00000627  00000-0  74633-4 0  9991
2 17912 082.5032 064.6975 0018885 289.7613 070.1564 14.82689870511727
Epoch (UTC): 26 April 2015 09:37:12
Eccentricity: 0.0018885
inclination: 82.5032°
perigee height: 607 km
apogee height: 634 km
right ascension of ascending node: 64.6975°
argument of perigee: 289.7613°
revolutions per day: 14.82689870
mean anomaly at epoch: 70.1564°
orbit number at epoch: 51172

The dashed part of the orbit path shows where the satellite is in the earth's shadow,  

DLR